Date,TemperatureHighF,TemperatureAvgF,TemperatureLowF,DewpointHighF,DewpointAvgF,DewpointLowF,HumidityHigh,HumidityAvg,HumidityLow,PressureMaxIn,PressureMinIn,WindSpeedMaxMPH,WindSpeedAvgMPH,GustSpeedMaxMPH,PrecipitationSumIn
2013-1-1,45,40,36,43,38,30,93,89,74,30.10,29.95,10,2,0,0.00
2013-1-2,44,38,36,42,35,33,93,89,83,30.15,29.96,10,2,0,0.00
2013-1-3,43,37,31,34,31,28,88,81,57,30.33,30.13,6,1,0,0.00
2013-1-4,42,34,26,28,24,21,89,70,45,30.39,30.30,7,3,0,0.00
2013-1-5,46,36,26,34,24,20,87,65,36,30.38,30.21,8,1,0,0.00
2013-1-6,45,40,37,37,35,30,92,81,63,30.28,30.12,9,4,0,0.00
2013-1-7,49,39,32,32,29,25,83,68,51,30.39,30.27,6,2,0,0.00
2013-1-8,54,40,28,35,30,25,90,71,38,30.40,30.27,6,2,0,0.00
2013-1-9,48,43,37,45,38,32,88,82,73,30.45,30.29,9,2,0,0.00
2013-1-10,66,54,46,53,48,44,92,81,59,30.45,30.16,8,2,0,0.00
2013-1-11,72,66,58,61,56,49,84,71,59,30.16,30.04,13,4,0,0.00
2013-1-12,73,66,62,62,60,56,88,80,67,30.14,30.00,9,1,0,0.00
2013-1-13,72,65,54,58,55,50,91,72,54,30.06,29.95,14,5,0,0.00
2013-1-14,61,46,38,58,44,36,93,92,89,30.29,30.03,13,3,0,0.00
2013-1-15,44,43,41,42,41,39,94,94,93,30.18,29.96,5,1,0,0.00
2013-1-16,49,45,42,47,43,40,94,94,93,30.05,29.88,9,3,0,0.00
2013-1-17,42,38,32,40,36,30,94,93,92,30.33,29.92,12,3,0,0.00
2013-1-18,40,33,26,36,30,24,93,90,78,30.51,30.33,6,0,0,0.00
2013-1-19,47,34,26,41,31,24,94,88,70,30.40,30.14,6,1,0,0.00
2013-1-20,54,47,37,34,31,27,84,55,39,30.18,30.09,10,5,0,0.00
2013-1-21,46,39,31,31,21,11,84,53,27,30.18,30.05,11,4,0,0.00
2013-1-22,35,28,22,12,3,-3,52,35,22,30.30,30.17,5,0,0,0.00
2013-1-23,48,36,27,31,13,0,51,38,28,30.33,30.06,9,1,0,0.00
2013-1-24,48,36,27,34,16,2,66,45,25,30.38,30.09,11,2,0,0.00
2013-1-25,34,29,25,32,22,5,92,78,38,30.33,30.06,2,0,0,0.00
2013-1-26,48,38,32,39,31,27,93,78,47,30.35,30.13,0,0,0,0.00
2013-1-27,48,37,26,37,30,24,92,76,56,30.42,30.31,0,0,0,0.00
2013-1-28,62,50,39,49,41,35,89,73,51,30.34,30.19,0,0,0,0.00
2013-1-29,70,59,47,55,49,44,90,71,58,30.22,29.90,6,0,0,0.00
2013-1-30,73,60,43,60,52,36,93,75,53,29.90,29.50,15,5,0,0.00
2013-1-31,44,40,33,36,23,20,79,52,41,30.02,29.67,19,7,0,0.00
2013-2-1,46,30,20,31,13,6,85,51,36,30.35,29.95,22,3,0,0.00
2013-2-2,40,29,21,32,21,11,84,73,54,30.33,30.03,5,0,0,0.00
2013-2-3,44,38,32,35,28,20,89,68,47,30.14,29.94,10,2,0,0.00
2013-2-4,49,36,26,28,24,21,84,64,41,30.13,29.93,2,0,0,0.00
2013-2-5,57,48,39,40,35,28,75,60,47,30.01,29.91,6,2,0,0.00
2013-2-6,62,50,37,41,32,21,86,53,21,30.19,30.01,4,0,0,0.00
2013-2-7,53,45,38,43,35,27,85,67,48,30.15,29.91,1,0,0,0.00
2013-2-8,54,45,38,48,38,28,92,78,53,30.25,29.87,8,1,0,0.00
2013-2-9,51,42,30,31,25,19,84,55,28,30.32,30.21,1,0,0,0.00
2013-2-10,63,46,37,45,33,21,91,65,21,30.22,29.98,3,0,0,0.00
2013-2-11,58,51,46,52,42,28,93,74,41,30.13,29.96,8,2,0,0.00
2013-2-12,55,47,38,37,30,24,79,52,35,30.17,29.85,1,0,0,0.00
2013-2-13,50,42,38,46,38,34,92,86,70,29.96,29.67,8,1,0,0.00
2013-2-14,54,44,36,34,31,28,85,63,39,30.06,29.96,3,0,0,0.00
2013-2-15,58,44,35,39,34,31,89,69,39,30.09,29.99,11,1,0,0.00
2013-2-16,38,32,27,32,22,9,91,69,32,30.07,29.94,2,0,0,0.00
2013-2-17,42,32,24,16,11,6,65,43,23,30.23,30.07,4,1,0,0.00
2013-2-18,60,44,27,30,22,15,70,44,26,30.25,29.95,10,1,0,0.00
2013-2-19,54,46,38,41,27,11,91,54,20,30.12,29.91,11,3,0,0.00
2013-2-20,43,37,31,18,13,5,54,38,21,30.21,30.13,7,1,0,0.00
2013-2-21,51,38,26,36,20,15,89,51,26,30.19,29.99,6,0,0,0.00
2013-2-22,55,47,38,48,42,36,93,85,73,30.09,29.96,1,0,0,0.00
2013-2-23,54,49,46,48,45,44,93,88,78,30.02,29.84,2,0,0,0.00
2013-2-24,57,47,38,45,28,18,86,52,25,30.07,29.90,3,0,0,0.00
2013-2-25,55,43,33,36,29,25,79,59,37,30.03,29.78,5,0,0,0.00
2013-2-26,66,51,43,51,41,33,90,69,43,29.78,29.42,13,4,0,0.00
2013-2-27,50,42,39,38,33,31,84,69,52,29.84,29.67,8,4,0,0.00
2013-2-28,39,37,34,32,28,23,87,69,57,29.98,29.79,7,3,0,0.00
2013-3-1,39,36,34,35,31,27,89,81,72,29.97,29.92,3,0,0,0.00
2013-3-2,37,33,29,34,29,21,92,84,67,30.01,29.89,4,0,0,0.00
2013-3-3,34,30,25,23,18,13,80,60,46,30.07,29.99,1,0,0,0.00
2013-3-4,54,39,24,23,17,3,76,47,15,30.15,29.98,1,0,0,0.00
2013-3-5,50,40,35,47,35,22,93,81,44,30.02,29.58,15,2,0,0.00
2013-3-6,34,32,29,30,28,23,90,85,76,30.22,29.82,8,3,0,0.00
2013-3-7,38,34,32,29,28,27,90,78,66,30.31,30.19,1,0,0,0.00
2013-3-8,49,40,31,28,26,22,81,59,34,30.37,30.28,3,0,0,0.00
2013-3-9,65,48,29,35,29,24,86,52,22,30.29,30.14,2,0,0,0.00
2013-3-10,72,58,43,40,34,25,76,45,22,30.17,29.96,2,0,0,0.00
2013-3-11,66,60,49,51,44,31,91,60,31,29.97,29.72,12,4,0,0.00
2013-3-12,52,44,37,44,35,31,91,74,49,30.06,29.87,5,1,0,0.00
2013-3-13,45,40,33,30,24,17,75,53,37,30.29,30.05,11,2,0,0.00
2013-3-14,46,37,27,19,16,10,66,44,25,30.35,30.21,2,0,0,0.00
2013-3-15,69,53,36,42,32,18,72,47,33,30.25,29.88,8,2,0,0.00
2013-3-16,75,68,63,47,43,39,44,40,35,29.89,29.75,14,6,0,0.00
2013-3-17,72,66,60,49,45,38,58,47,37,29.94,29.81,5,1,0,0.00
2013-3-18,68,56,49,52,48,38,92,78,37,29.90,29.76,9,1,0,0.00
2013-3-19,59,50,40,51,30,7,93,52,14,30.12,29.81,4,0,0,0.00
2013-3-20,54,44,33,32,15,4,78,34,16,30.13,29.85,8,1,0,0.00
2013-3-21,42,33,25,24,11,6,61,40,26,29.97,29.90,4,0,0,0.00
2013-3-22,48,37,25,25,18,10,73,48,27,30.03,29.95,0,0,0,0.00
2013-3-23,54,45,38,42,35,23,89,68,47,30.02,29.72,3,0,0,0.00
2013-3-24,55,48,43,51,44,34,93,88,69,29.76,29.37,12,1,0,0.00
2013-3-25,42,35,32,34,28,25,87,76,65,29.97,29.58,11,6,0,0.00
2013-3-26,39,34,31,31,28,26,88,79,62,30.24,29.96,5,1,0,0.00
2013-3-27,49,40,34,29,25,20,79,57,33,30.30,30.22,2,0,0,0.00
2013-3-28,57,43,29,30,22,13,84,50,17,30.34,30.23,2,0,0,0.00
2013-3-29,48,40,33,40,31,23,92,71,42,30.32,30.22,1,0,0,0.00
2013-3-30,61,49,42,47,43,40,93,81,58,30.23,30.01,2,0,0,0.00
2013-3-31,62,55,50,54,50,-100,93,86,68,30.01,29.83,9,2,0,0.00
2013-4-1,63,53,43,52,44,33,94,73,39,30.05,29.88,8,0,0,0.00
2013-4-2,55,48,38,34,22,13,55,37,20,30.22,30.06,1,0,0,0.00
2013-4-3,55,48,36,27,19,15,65,33,22,30.28,30.18,5,1,0,0.00
2013-4-4,50,43,40,40,33,16,92,72,27,30.18,29.96,4,0,0,0.00
2013-4-5,64,49,40,43,38,32,93,70,34,30.09,29.95,1,0,0,0.00
2013-4-6,72,58,41,41,36,30,80,50,21,30.19,30.04,5,0,0,0.00
2013-4-7,74,65,55,45,38,32,55,37,31,30.15,30.03,8,1,0,0.00
2013-4-8,79,66,52,50,47,42,78,51,33,30.10,29.99,5,1,0,0.00
2013-4-9,83,70,54,56,52,48,80,55,36,30.17,30.03,2,0,0,0.00
2013-4-10,86,74,60,59,56,52,78,55,36,30.12,29.89,0,0,0,0.00
2013-4-11,83,74,62,59,53,46,90,49,30,29.92,29.64,7,2,0,0.00
2013-4-12,68,60,53,59,46,35,92,64,36,29.95,29.58,8,2,0,0.00
2013-4-13,71,59,46,43,36,31,77,46,25,30.06,29.95,1,0,0,0.00
2013-4-14,72,59,46,47,41,34,72,53,26,30.05,29.93,6,0,0,0.00
2013-4-15,81,67,53,56,51,47,83,59,38,30.08,29.92,0,0,0,0.00
2013-4-16,86,72,55,62,57,52,90,63,40,30.25,30.08,1,0,0,0.00
2013-4-17,73,68,63,61,59,54,89,75,52,30.27,30.08,7,0,0,0.00
2013-4-18,82,71,59,65,56,48,93,64,32,30.08,29.84,8,1,0,0.00
2013-4-19,76,61,46,62,50,32,91,69,46,30.08,29.68,8,2,0,0.00
2013-4-20,63,50,36,36,30,24,87,49,24,30.29,30.08,1,0,0,0.00
2013-4-21,68,53,38,40,34,29,83,53,24,30.39,30.23,1,0,0,0.00
2013-4-22,69,59,42,44,37,32,82,46,30,30.32,30.14,1,0,0,0.00
2013-4-23,76,62,44,49,43,38,86,54,33,30.23,30.03,1,0,0,0.00
2013-4-24,75,61,46,61,50,43,90,70,44,30.24,29.97,10,1,0,0.00
2013-4-25,67,54,43,43,36,27,89,56,24,30.34,30.22,0,0,0,0.00
2013-4-26,71,56,39,45,37,32,83,53,26,30.41,30.28,0,0,0,0.00
2013-4-27,58,55,52,53,50,42,93,84,55,30.34,30.09,1,0,0,0.00
2013-4-28,58,55,52,56,53,49,94,93,86,30.15,29.90,1,0,0,0.00
2013-4-29,73,62,53,60,54,51,94,78,52,30.05,29.95,0,0,0,0.00
2013-4-30,83,68,52,59,54,50,93,66,35,30.10,29.97,0,0,0,0.00
2013-5-1,76,68,58,59,53,47,87,60,43,30.22,30.08,2,0,0,0.00
2013-5-2,79,68,56,58,52,47,83,58,42,30.18,30.09,0,0,0,0.00
2013-5-3,77,65,56,56,50,44,86,61,33,30.12,29.96,2,0,0,0.00
2013-5-4,63,58,53,52,47,34,91,68,41,29.97,29.88,1,0,0,0.00
2013-5-5,58,55,52,56,52,49,92,89,74,29.90,29.74,2,0,0,0.00
2013-5-6,64,54,48,55,48,46,93,81,61,29.91,29.77,1,0,0,0.00
2013-5-7,71,59,48,55,49,46,92,73,46,29.98,29.87,0,0,0,0.00
2013-5-8,74,62,55,61,56,53,92,82,59,30.08,29.94,3,0,0,0.00
2013-5-9,82,68,54,64,56,50,93,68,35,30.12,30.02,2,0,0,0.00
2013-5-10,80,67,59,62,54,-100,81,68,47,30.11,29.95,3,0,0,0.00
2013-5-11,76,66,60,63,58,50,86,73,59,29.99,29.86,2,0,0,0.00
2013-5-12,66,58,51,50,37,-100,83,50,23,30.14,29.98,0,0,0,0.00
2013-5-13,67,55,40,39,33,27,85,49,24,30.23,30.11,1,0,0,0.00
2013-5-14,80,64,44,52,43,35,74,50,32,30.22,30.03,7,1,0,0.00
2013-5-15,85,77,71,55,53,50,53,44,34,30.16,29.99,4,2,0,0.00
2013-5-16,83,67,63,59,34,-100,71,54,36,30.08,29.98,3,0,0,0.00
2013-5-17,84,71,61,66,54,-100,87,70,45,30.11,30.02,0,0,0,0.00
2013-5-18,76,67,64,68,64,62,93,89,74,30.09,30.03,0,0,0,0.00
2013-5-19,81,69,65,72,65,62,94,87,68,30.09,30.02,0,0,0,0.00
2013-5-20,87,73,63,68,64,61,94,78,52,30.16,30.02,0,0,0,0.00
2013-5-21,90,76,65,70,65,61,92,72,43,30.08,29.91,5,0,0,0.00
2013-6-30,88,84,74,66,60,54,73,47,34,29.81,29.74,1,0,0,0.00
2013-7-1,87,71,66,70,65,63,92,82,54,29.92,29.80,0,0,0,0.00
2013-7-2,84,73,65,70,66,63,93,81,57,30.09,29.93,0,0,0,0.00
2013-7-3,73,69,65,70,66,63,93,92,88,30.21,30.09,0,0,0,0.00
2013-7-4,80,71,65,73,68,63,94,90,76,30.22,30.14,0,0,0,0.00
2013-7-5,82,73,68,72,68,66,94,86,64,30.22,30.15,0,0,0,0.00
2013-7-6,85,72,68,75,68,65,94,88,58,30.20,30.11,2,0,0,0.00
2013-7-7,72,69,68,70,67,65,94,93,90,30.22,30.13,0,0,0,0.00
2013-7-8,89,73,68,72,66,-100,94,85,54,30.26,30.15,0,0,0,0.00
2013-7-9,92,78,68,73,68,64,90,75,51,30.21,30.11,1,0,0,0.00
2013-7-10,91,75,72,75,65,-100,87,76,53,30.16,29.99,1,0,0,0.00
2013-7-11,87,77,71,72,70,67,91,79,58,30.02,29.92,0,0,0,0.00
2013-7-12,86,74,69,69,66,62,93,78,55,30.01,29.94,0,0,0,0.00
2013-7-13,89,79,66,69,65,62,90,64,48,30.10,29.98,0,0,0,0.00
2013-7-14,86,77,68,73,68,63,90,74,59,30.25,30.10,1,0,0,0.00
2013-7-15,92,77,67,70,66,64,91,71,45,30.33,30.24,0,0,0,0.00
2013-7-16,92,80,69,71,68,65,88,69,47,30.40,30.29,0,0,0,0.00
2013-7-17,93,78,69,76,69,67,92,75,48,30.35,30.22,0,0,0,0.00
2013-7-18,92,75,67,74,69,65,93,83,55,30.27,30.10,0,0,0,0.00
2013-7-19,91,76,69,74,69,67,92,81,53,30.16,30.03,1,0,0,0.00
2013-7-20,91,79,71,73,68,-100,91,73,53,30.09,29.98,1,0,0,0.00
2013-7-21,88,75,70,74,69,67,93,84,61,30.06,29.96,1,0,0,0.00
2013-7-22,86,72,68,72,68,66,94,90,59,30.03,29.87,2,0,0,0.00
2013-7-23,86,77,72,71,68,67,85,75,62,29.96,29.85,2,0,0,0.00
2013-7-24,86,79,72,74,71,66,89,76,62,29.93,29.84,1,0,0,0.00
2013-7-25,88,74,66,68,65,61,92,74,42,30.08,29.92,0,0,0,0.00
2013-7-26,90,71,62,70,65,60,93,82,47,30.11,30.01,0,0,0,0.00
2013-7-27,82,75,67,73,68,65,93,80,65,30.04,29.93,0,0,0,0.00
2013-7-28,84,75,69,68,65,59,92,72,46,30.10,29.95,1,0,0,0.00
2013-7-29,84,71,60,63,58,54,93,68,36,30.24,30.10,0,0,0,0.00
2013-7-30,82,69,60,65,61,56,91,76,52,30.27,30.18,0,0,0,0.00
2013-7-31,77,70,64,71,66,61,94,90,78,30.20,30.02,0,0,0,0.00
2013-8-1,86,77,70,73,68,65,94,77,49,30.03,29.98,0,0,0,0.00
2013-8-2,89,76,67,70,66,61,93,72,41,30.08,30.01,0,0,0,0.00
2013-8-3,86,77,67,71,68,64,91,73,55,30.08,30.01,2,0,0,0.00
2013-8-4,87,78,72,71,66,58,88,69,38,30.11,30.04,0,0,0,0.00
2013-8-5,88,74,63,66,62,58,92,69,42,30.11,30.01,0,0,0,0.00
2013-8-6,89,76,67,72,65,59,83,71,52,30.05,29.98,0,0,0,0.00
2013-8-7,88,78,73,73,71,70,92,80,58,30.10,29.98,0,0,0,0.00
2013-8-8,86,77,70,75,71,67,92,83,70,30.10,30.02,0,0,0,0.00
2013-8-9,91,78,70,75,71,67,94,80,54,30.11,30.03,0,0,0,0.00
2013-8-10,92,78,70,74,70,68,93,81,51,30.18,30.10,2,0,0,0.00
2013-8-11,89,75,68,74,70,66,94,84,57,30.20,30.09,1,0,0,0.00
2013-8-21,84,73,67,73,68,65,93,87,65,30.26,30.16,0,0,0,0.00
2013-8-22,90,78,67,72,69,65,94,77,50,30.23,30.08,0,0,0,0.00
2013-8-23,89,73,67,72,67,64,93,83,55,30.13,30.04,0,0,0,0.00
2013-8-24,84,73,64,74,65,60,94,79,45,30.27,30.14,0,0,0,0.00
2013-8-25,85,72,63,66,58,-100,93,67,42,30.40,30.27,0,0,0,0.00
2013-8-26,87,72,61,66,62,58,92,73,48,30.37,30.19,0,0,0,0.00
2013-8-27,86,72,65,69,64,61,87,77,57,30.21,30.11,0,0,0,0.00
2013-10-2,81,69,59,66,60,56,90,75,48,30.23,30.11,6,1,0,0.00
2013-10-3,82,70,63,66,62,58,90,77,53,30.19,30.09,6,1,0,0.00
2013-10-4,83,72,61,65,62,58,90,72,48,30.22,30.13,6,1,0,0.00
2013-10-5,86,73,62,68,64,59,90,74,49,30.18,30.04,5,1,0,0.00
2013-10-6,83,72,63,68,62,57,94,72,44,30.04,29.85,5,1,0,0.00
2013-10-7,69,60,54,63,53,47,92,80,47,30.11,29.85,6,1,0,0.00
2013-10-8,73,61,48,57,51,45,91,72,48,30.18,30.11,3,1,0,0.00
2013-10-18,67,58,53,52,49,46,89,74,48,30.10,29.99,1,0,0,0.00
2013-10-19,63,55,51,53,49,45,91,81,63,30.03,29.91,6,1,0,0.00
2013-10-20,64,52,43,44,37,-100,88,64,27,30.12,30.03,3,0,0,0.00
2013-10-21,69,53,40,52,44,38,91,74,47,30.14,30.00,5,1,0,0.00
2013-10-22,67,58,53,51,50,48,86,73,53,30.03,29.88,3,1,0,0.00
2013-10-23,55,49,39,49,40,32,88,70,57,30.11,29.82,7,3,0,0.00
2013-10-24,53,45,36,39,35,32,86,71,53,30.24,30.10,5,1,0,0.00
2013-10-25,50,43,35,34,28,25,80,56,38,30.43,30.25,5,1,0,0.00
2013-10-26,58,44,28,34,28,25,89,60,29,30.34,30.09,6,2,0,0.00
2013-10-27,64,56,52,51,40,-100,77,57,42,30.15,30.07,4,1,0,0.00
2013-10-28,66,57,52,56,49,-100,92,80,59,30.29,30.14,3,0,0,0.00
2013-10-29,73,62,54,55,52,46,91,72,42,30.36,30.24,5,1,0,0.00
2013-10-30,78,66,58,58,54,52,85,67,42,30.29,30.14,7,1,0,0.00